Tracking 18852 objects as of 24-Nov-2017
HD Live streaming from Space Station
objects crossing your sky now

FENGYUN 1C DEB

Track FENGYUN 1C DEB now!
10-day predictions


NORAD ID: 30609
Int'l Code: 1999-025AMQ
Perigee: 814.1 km
Apogee: 1,025.8 km
Inclination: 98.6 °
Period: 103.3 minutes
Semi major axis: 7290 km
RCS: 0.0181 m2 (small)
Launch date: May 10, 1999
Source: People's Republic of China (PRC)
Launch site: Taiyaun Space Center, China (TSC)

Note: This is SATELLITE DEBRIS
aabbcc
Your satellite tracking list
Your tracking list is empty




NASA's NSSDC Master Catalog

Two Line Element Set (TLE):
1 30609U 99025AMQ 17327.17597672  .00000906  00000-0  64920-3 0  9996
2 30609  98.5549  41.2068 0145144   3.3213 356.8880 13.94531360546673
Source of the keplerian elements: AFSPC